TURKSAT 6A

Last updated on Tue Sep 22 2026 00:03:16 GMT+0000 (Coordinated Universal Time)

1 60233U 24127A 26264.49739072 .00000142 00000+0 00000+0 0 9996 2 60233 0.0320 218.7564 0004521 338.2600 24.4020 1.00271027 7984
UTC large
Height (km)
Speed (km/s)
/
Latitude / Longitude
Inclination (degrees)
Orbital Period (minutes)
Azimuth
Elevation
Range (km)
Doppler Factor

Next 0 passes for location: London (51.5072 / 0.1276)

No passes found over London.
TURKSAT 6A